Date_and_time,latitude,longitude,wind_speed,RelWindDirFrom,WindDirFrom,air_pressure,air_temperature,relative_humidity,Temp,platform_speed_wrt_ground,air_pressure_at_mean_sea_level,platform_orientation
2018-09-20 23:40,50.630435,-96.98077,16.4,19.0,44,988.82,12.1,57,13.65,0.0,1015.54,27.6
2018-09-20 23:50,50.6304333333333,-96.9807683333333,16.3,19.0,46,988.80,12.1,58,13.65,0.0,1015.51,27.6
2018-09-21 00:00,50.6304333333333,-96.9807683333333,17.2,20.6,44,988.65,12.0,57,13.64,0.0,1015.35,360.0
2018-09-21 00:10,50.6304333333333,-96.9807666666667,16.8,20.3,42,988.57,12.0,56,13.64,0.0,1015.26,360.0
2018-09-21 00:20,50.630425,-96.98079,16.2,18.2,44,988.55,12.0,56,13.63,0.0,1015.24,360.0
2018-09-21 00:30,50.63044,-96.9807666666667,16.2,19.7,40,988.45,12.0,56,13.62,0.0,1015.14,360.0
2018-09-21 00:40,50.6304416666667,-96.980765,16.9,20.8,42,988.36,12.0,55,13.62,0.0,1015.05,360.0
2018-09-21 00:50,50.63044,-96.980765,16.0,19.3,38,988.34,12.1,57,13.61,0.0,1015.03,360.0
2018-09-21 01:00,50.6304366666667,-96.980765,16.5,20.0,41,988.35,12.0,56,13.60,0.0,1015.03,18.9
2018-09-21 01:10,50.63044,-96.9807633333333,15.6,20.8,35,988.30,12.0,56,13.59,0.0,1014.99,18.9
2018-09-21 01:20,50.63044,-96.9807633333333,15.6,17.9,41,988.25,12.0,56,13.58,0.0,1014.94,18.9
2018-09-21 01:30,50.630435,-96.98077,16.4,19.8,39,988.17,12.0,55,13.58,0.0,1014.85,18.9
2018-09-21 01:40,50.6304366666667,-96.9807716666667,14.8,18.5,39,988.20,12.0,56,13.58,0.0,1014.88,18.9
2018-09-21 01:50,50.6304366666667,-96.980765,16.0,19.2,29,988.09,12.0,55,13.58,0.0,1014.77,18.9
2018-09-21 02:00,50.6304366666667,-96.980765,15.5,19.9,32,988.16,12.0,55,13.58,0.0,1014.84,360.0
2018-09-21 02:10,50.630435,-96.980765,15.6,19.4,34,988.20,12.1,55,13.57,0.0,1014.88,360.0
2018-09-21 02:20,50.6304366666667,-96.980765,15.8,20.6,26,988.10,12.1,55,13.57,0.0,1014.78,360.0
2018-09-21 02:30,50.6304366666667,-96.9807666666667,18.3,32.5,12,987.96,11.9,49,13.56,0.0,1014.65,360.0
2018-09-21 02:40,50.6303983333333,-96.98076,18.5,28.6,8,987.96,11.3,51,13.55,0.0,1014.67,360.0
2018-09-21 02:50,50.6304283333333,-96.9807666666667,18.7,28.1,25,988.12,10.9,53,13.53,0.0,1014.86,360.0
2018-09-21 03:00,50.6304316666667,-96.9807716666667,19.0,26.3,49,988.09,10.8,55,13.51,0.0,1014.83,270.0
2018-09-21 03:10,50.6304366666667,-96.98077,18.6,28.1,52,987.96,11.0,49,13.50,0.0,1014.69,270.0
2018-09-21 03:20,50.630435,-96.98077,19.4,26.8,47,987.77,11.2,49,13.49,0.0,1014.49,270.0
2018-09-21 03:30,50.630435,-96.9807716666667,19.1,27.2,31,987.65,11.4,48,13.46,0.0,1014.35,270.0
2018-09-21 03:40,50.6304366666667,-96.9807716666667,14.7,19.7,46,987.76,11.3,50,13.45,0.0,1014.47,270.0
2018-09-21 03:50,50.6304366666667,-96.9807716666667,17.6,24.6,53,987.66,11.4,49,13.44,0.0,1014.36,270.0
2018-09-21 04:00,50.6304383333333,-96.9807716666667,15.2,31.9,30,987.65,11.4,53,13.44,0.0,1014.34,347.4
2018-09-21 04:10,50.6304383333333,-96.9807716666667,6.3,11.5,320,988.27,10.4,58,13.42,0.0,1015.03,347.4
2018-09-21 04:20,50.6304366666667,-96.9807733333333,4.5,13.2,309,988.39,9.2,67,13.42,0.0,1015.22,347.4
2018-09-21 04:30,50.6304383333333,-96.9807733333333,3.6,7.0,289,988.41,8.9,70,13.41,0.0,1015.28,347.4
2018-09-21 04:40,50.6304383333333,-96.9807716666667,10.1,26.0,23,988.16,9.5,64,13.41,0.0,1015.02,347.4
2018-09-21 04:50,50.6304383333333,-96.9807716666667,18.1,27.8,27,988.06,10.5,62,13.41,0.0,1014.87,347.4
2018-09-21 05:00,50.6304383333333,-96.9807716666667,19.9,28.1,29,987.99,10.1,65,13.41,0.0,1014.81,347.4
2018-09-21 05:10,50.6304383333333,-96.9807716666667,13.7,24.2,12,988.16,9.7,71,13.40,0.0,1015.00,347.4
2018-09-21 05:20,50.6304416666667,-96.98075,8.7,13.6,332,988.25,8.7,78,13.40,0.0,1015.13,347.4
2018-09-21 05:30,50.63044,-96.980765,12.2,21.1,6,988.07,9.2,75,13.39,0.0,1014.92,347.4
2018-09-21 05:40,50.6304366666667,-96.9807633333333,15.3,20.5,5,987.86,9.8,69,13.38,0.0,1014.67,347.4
2018-09-21 05:50,50.630435,-96.980765,18.7,24.1,11,987.61,10.3,66,13.36,0.0,1014.39,347.4
2018-09-21 06:00,50.6304316666667,-96.980765,18.5,23.4,16,987.57,10.4,66,13.35,0.0,1014.39,90.0
2018-09-21 06:10,50.6304216666667,-96.98076,18.6,25.0,15,987.43,10.7,62,13.35,0.0,1014.29,90.0
2018-09-21 06:20,50.63044,-96.9807683333333,19.3,25.2,18,987.39,11.0,62,13.33,0.0,1014.25,90.0
2018-09-21 06:30,50.6304333333333,-96.980775,22.7,27.8,23,987.18,11.1,59,13.33,0.0,1014.00,90.0
2018-09-21 06:40,50.6304416666667,-96.9807716666667,15.3,27.4,1,987.41,10.4,65,13.32,0.0,1014.23,90.0
2018-09-21 06:50,50.63044,-96.9807733333333,8.9,15.8,329,987.74,8.7,76,13.31,0.0,1014.66,90.0
2018-09-21 07:00,50.6304416666667,-96.98077,8.2,15.3,330,987.57,8.8,75,13.30,0.0,1014.51,90.0
2018-09-21 07:10,50.6304433333333,-96.9807716666667,6.4,9.1,313,987.54,8.3,79,13.29,0.0,1014.55,90.0
2018-09-21 07:20,50.630445,-96.9807716666667,8.0,11.0,332,987.51,8.5,77,13.27,0.0,1014.47,90.0
2018-09-21 07:30,50.6304433333333,-96.9807733333333,7.0,10.3,323,987.48,8.9,74,13.24,0.0,1014.40,90.0
2018-09-21 07:40,50.630455,-96.98077,8.2,14.5,306,987.47,8.8,75,13.22,0.0,1014.37,90.0
2018-09-21 07:50,50.630445,-96.9807716666667,7.6,11.4,298,987.58,7.9,83,13.22,0.0,1014.52,90.0
2018-09-21 08:00,50.6304333333333,-96.980775,8.1,13.2,293,987.53,7.6,87,13.21,0.0,1014.47,360.0
2018-09-21 08:10,50.63045,-96.980775,8.0,12.2,293,987.54,7.6,88,13.19,0.0,1014.47,360.0
2018-09-21 08:20,50.630445,-96.9807766666667,8.0,12.1,295,987.55,7.6,88,13.18,0.0,1014.47,360.0
2018-09-21 08:30,50.6304416666667,-96.9807733333333,7.1,10.8,292,987.56,7.6,89,13.17,0.0,1014.52,360.0
2018-09-21 08:40,50.63044,-96.9807666666667,6.8,10.1,294,987.53,7.6,89,13.17,0.0,1014.57,360.0
2018-09-21 08:50,50.63044,-96.9807666666667,7.1,10.5,296,987.56,7.5,91,13.16,0.0,1014.60,360.0
2018-09-21 09:00,50.63044,-96.980765,6.0,8.8,292,987.60,7.4,92,13.12,0.0,1014.67,360.0
2018-09-21 09:10,50.6304383333333,-96.980765,5.9,8.4,287,987.62,7.3,93,13.12,0.0,1014.68,360.0
2018-09-21 09:20,50.6304383333333,-96.980765,5.9,10.1,290,987.68,7.2,94,13.13,0.0,1014.73,360.0
2018-09-21 09:30,50.6304383333333,-96.980765,5.7,8.3,292,987.69,7.1,94,13.14,0.0,1014.75,360.0
2018-09-21 09:40,50.6304383333333,-96.9807666666667,5.7,8.7,291,987.74,7.1,94,13.12,0.0,1014.85,360.0
2018-09-21 09:50,50.6304383333333,-96.9807666666667,6.0,9.0,292,987.77,7.1,93,13.12,0.0,1014.89,360.0
2018-09-21 10:00,50.6304383333333,-96.9807666666667,6.0,9.7,287,987.85,7.1,93,13.11,0.0,1014.98,90.0
2018-09-21 10:10,50.6304366666667,-96.9807666666667,6.2,9.3,288,987.98,7.0,93,13.12,0.0,1015.11,90.0
2018-09-21 10:20,50.6304366666667,-96.9807666666667,7.7,12.5,293,988.17,7.0,92,13.14,0.0,1015.31,90.0
2018-09-21 10:30,50.6304366666667,-96.9807666666667,8.0,12.6,300,988.24,7.0,90,13.15,0.0,1015.38,90.0
2018-09-21 10:40,50.63043,-96.9807666666667,7.4,11.7,305,988.26,7.0,89,13.14,0.0,1015.41,90.0
2018-09-21 10:50,50.630435,-96.9807633333333,8.8,12.4,308,988.45,7.0,88,13.12,0.0,1015.61,90.0
2018-09-21 11:00,50.6304366666667,-96.9807616666667,9.9,15.2,307,988.46,7.0,87,13.10,0.0,1015.63,60.8
2018-09-21 11:10,50.6304383333333,-96.9807633333333,9.3,16.3,315,988.67,7.0,86,13.08,0.0,1015.84,60.8
2018-09-21 11:20,50.6304383333333,-96.9807633333333,8.6,13.1,314,988.80,7.0,86,13.09,0.0,1015.98,60.8
2018-09-21 11:30,50.6304383333333,-96.9807633333333,8.6,12.3,311,989.06,6.9,85,13.08,0.0,1016.25,60.8
2018-09-21 11:40,50.63044,-96.9807633333333,8.5,14.0,309,989.26,6.8,84,13.07,0.0,1016.46,60.8
2018-09-21 11:50,50.6304416666667,-96.9807633333333,9.2,14.4,308,989.41,6.7,84,13.07,0.0,1016.62,60.8
2018-09-21 12:00,50.6304416666667,-96.9807633333333,10.1,15.2,315,989.52,6.6,82,13.07,0.0,1016.75,90.0
2018-09-21 12:10,50.6304416666667,-96.9807633333333,9.5,13.1,317,989.69,6.5,81,13.07,0.0,1016.92,90.0
2018-09-21 12:20,50.6304433333333,-96.9807633333333,8.9,12.9,317,989.94,6.6,80,13.06,0.0,1017.18,90.0
2018-09-21 12:30,50.63046,-96.9807616666667,8.5,12.1,310,990.23,6.2,82,13.05,0.0,1017.49,90.0
2018-09-21 12:40,50.630455,-96.980765,8.9,14.9,311,990.34,6.0,83,13.04,0.0,1017.62,90.0
2018-09-21 12:50,50.630435,-96.9807666666667,8.5,12.5,319,990.54,6.1,82,13.03,0.0,1017.82,90.0
2018-09-21 13:00,50.6304366666667,-96.9807733333333,8.2,12.0,322,990.73,6.3,82,13.02,0.0,1018.01,192.6
2018-09-21 13:10,50.630435,-96.9807666666667,9.1,13.7,318,990.86,6.2,82,13.01,0.0,1018.14,192.6
2018-09-21 13:20,50.6304333333333,-96.9807633333333,9.2,12.6,319,991.08,6.1,83,13.01,0.0,1018.38,192.6
2018-09-21 13:30,50.6304316666667,-96.9807533333333,9.2,14.1,319,991.23,6.2,83,13.00,0.0,1018.52,192.6
2018-09-21 13:40,50.6304333333333,-96.9807616666667,10.2,17.1,324,991.30,6.4,82,12.98,0.0,1018.60,192.6
2018-09-21 13:50,50.630435,-96.9807666666667,10.1,15.7,325,991.49,6.5,81,12.97,0.0,1018.79,192.6
2018-09-21 14:00,50.6304366666667,-96.9807683333333,10.0,15.3,323,991.68,6.5,82,12.92,0.0,1018.99,270.0
2018-09-21 14:10,50.63044,-96.9807683333333,11.5,15.6,324,991.83,6.4,82,12.89,0.0,1019.15,270.0
2018-09-21 14:20,50.63044,-96.9807683333333,10.7,15.9,332,991.98,6.5,83,12.87,0.0,1019.31,270.0
2018-09-21 14:30,50.6304466666667,-96.98077,9.9,15.2,327,992.10,6.6,83,12.85,0.0,1019.44,270.0
2018-09-21 14:40,50.6304533333333,-96.980765,10.9,17.8,323,992.32,6.7,82,12.82,0.0,1019.67,270.0
2018-09-21 14:50,50.6304583333333,-96.9807666666667,9.7,14.7,322,992.63,6.7,81,12.81,0.0,1019.97,270.0
2018-09-21 15:00,50.6304583333333,-96.9807633333333,10.8,18.7,323,992.70,7.1,78,12.81,0.0,1020.03,360.0
2018-09-21 15:10,50.6304583333333,-96.9807616666667,10.7,15.6,316,992.87,7.4,75,12.82,0.0,1020.19,360.0
2018-09-21 15:20,50.6304583333333,-96.98076,8.5,13.3,327,993.09,7.8,72,12.81,0.0,1020.39,360.0
2018-09-21 15:30,50.63046,-96.9807783333333,8.7,13.6,315,993.17,8.2,68,12.80,0.0,1020.44,360.0
2018-09-21 15:40,50.630455,-96.9807683333333,10.1,14.3,314,993.22,8.2,66,12.79,0.0,1020.49,360.0
2018-09-21 15:50,50.6304533333333,-96.9807683333333,9.8,14.6,311,993.35,8.4,64,12.80,0.0,1020.61,360.0
2018-09-21 16:00,50.6304516666667,-96.980775,10.2,15.3,325,993.44,8.7,62,12.80,0.0,1020.70,360.0
2018-09-21 16:10,50.6304483333333,-96.980775,10.5,15.3,319,993.56,8.8,59,12.79,0.0,1020.81,360.0
2018-09-21 16:20,50.63045,-96.9807716666667,8.7,13.2,331,993.77,9.0,60,12.80,0.0,1021.01,360.0
2018-09-21 16:30,50.6304483333333,-96.9807716666667,8.9,13.8,322,993.97,9.0,60,12.80,0.0,1021.22,360.0
2018-09-21 16:40,50.63045,-96.98077,7.4,12.9,299,994.17,8.9,61,12.81,0.0,1021.42,360.0
2018-09-21 16:50,50.63045,-96.98077,7.4,12.3,320,994.22,9.1,61,12.82,0.0,1021.44,360.0
2018-09-21 17:00,50.6304516666667,-96.9807716666667,8.6,13.2,306,994.22,9.0,61,12.82,0.0,1021.43,360.0
2018-09-21 17:10,50.6304616666667,-96.9807766666667,9.3,15.1,307,994.29,8.9,63,12.83,0.0,1021.49,360.0
2018-09-21 17:20,50.6304633333333,-96.980785,11.5,16.6,306,994.26,8.6,64,12.82,0.0,1021.46,360.0
2018-09-21 17:30,50.6304583333333,-96.9807783333333,11.4,15.5,313,994.33,8.4,65,12.82,0.0,1021.54,360.0
2018-09-21 17:40,50.6304583333333,-96.9807733333333,10.1,15.1,310,994.39,8.3,66,12.83,0.0,1021.59,360.0
2018-09-21 17:50,50.6304566666667,-96.9807733333333,10.8,16.5,306,994.53,8.3,67,12.84,0.0,1021.72,360.0
2018-09-21 18:00,50.630455,-96.9807766666667,10.1,15.5,305,994.69,8.1,68,12.84,0.0,1021.90,192.6
2018-09-21 18:10,50.6304533333333,-96.9807616666667,11.9,17.0,304,994.77,8.0,71,12.84,0.0,1021.97,192.6
2018-09-21 18:20,50.6304483333333,-96.9807616666667,10.9,16.1,308,995.00,7.4,78,12.85,0.0,1022.23,192.6
2018-09-21 18:30,50.63045,-96.98076,9.2,15.0,305,995.10,7.5,75,12.87,0.0,1022.34,192.6
2018-09-21 18:40,50.63045,-96.98076,8.9,13.2,301,995.19,7.6,74,12.87,0.0,1022.42,192.6
2018-09-21 18:50,50.63045,-96.9807616666667,6.2,9.8,298,995.24,7.8,74,12.87,0.0,1022.47,192.6
2018-09-21 19:00,50.630445,-96.9807683333333,8.9,13.1,316,995.25,7.9,74,12.85,0.0,1022.47,360.0
2018-09-21 19:10,50.6304483333333,-96.98077,6.6,12.0,322,995.35,8.0,72,12.84,0.0,1022.59,360.0
2018-09-21 19:20,50.63045,-96.9807716666667,5.7,9.2,330,995.38,7.8,75,12.85,0.0,1022.64,360.0
2018-09-21 19:30,50.63045,-96.9807716666667,7.4,13.4,319,995.30,8.0,69,12.86,0.0,1022.55,360.0
2018-09-21 19:40,50.6304483333333,-96.9807716666667,6.9,12.5,307,995.23,8.0,68,12.86,0.0,1022.47,360.0
2018-09-21 19:50,50.63045,-96.9807733333333,5.3,11.3,302,995.21,8.4,66,12.86,0.0,1022.45,360.0
2018-09-21 20:00,50.6304516666667,-96.9807683333333,6.9,11.7,288,995.21,8.3,63,12.86,0.0,1022.46,90.0
2018-09-21 20:10,50.6304516666667,-96.9807616666667,5.2,9.4,314,995.36,8.4,66,12.86,0.0,1022.63,90.0
2018-09-21 20:20,50.6304516666667,-96.9807616666667,5.4,9.6,326,995.41,8.6,66,12.87,0.0,1022.67,90.0
2018-09-21 20:30,50.6304516666667,-96.9807616666667,7.4,12.6,296,995.30,9.0,58,12.87,0.0,1022.54,90.0
2018-09-21 20:40,50.6304516666667,-96.9807633333333,5.2,8.8,273,995.35,9.0,57,12.88,0.0,1022.58,90.0
2018-09-21 20:50,50.63045,-96.980765,5.5,11.2,348,995.25,9.2,61,12.88,0.0,1022.46,90.0
2018-09-21 21:00,50.63045,-96.980765,6.3,8.6,336,995.36,8.7,64,12.91,0.0,1022.59,90.0
2018-09-21 21:10,50.63045,-96.9807616666667,4.6,7.8,305,995.36,8.8,60,12.92,0.0,1022.60,90.0
2018-09-21 21:20,50.630455,-96.98077,5.9,9.8,284,995.30,9.3,57,12.93,0.0,1022.50,90.0
2018-09-21 21:30,50.63045,-96.9807733333333,6.5,10.6,294,995.32,9.3,55,12.93,0.0,1022.52,90.0
2018-09-21 21:40,50.6304466666667,-96.9807716666667,5.6,9.4,304,995.37,9.5,56,12.93,0.0,1022.54,90.0
2018-09-21 21:50,50.6304466666667,-96.9807683333333,6.5,10.2,285,995.35,9.7,54,12.92,0.0,1022.51,90.0
2018-09-21 22:00,50.6304433333333,-96.9807666666667,6.2,9.8,251,995.26,9.8,52,12.90,0.0,1022.41,0.0
2018-09-21 22:10,50.6304433333333,-96.9807683333333,7.6,12.2,259,995.17,10.1,50,12.90,0.0,1022.30,0.0
2018-09-21 22:20,50.6304433333333,-96.9807683333333,6.2,12.8,293,995.07,10.3,50,12.91,0.0,1022.17,0.0
2018-09-21 22:30,50.6304183333333,-96.9807583333333,6.6,10.9,302,995.00,10.3,49,12.93,0.0,1022.10,0.0
2018-09-21 22:40,50.6304516666667,-96.9807683333333,6.3,10.2,301,994.99,10.4,46,12.94,0.0,1022.06,0.0
2018-09-21 22:50,50.6304366666667,-96.9807733333333,6.6,11.4,259,994.89,10.4,47,12.94,0.0,1022.00,0.0
2018-09-21 23:00,50.63043,-96.980775,5.8,9.5,233,994.84,10.2,50,12.96,0.0,1021.94,360.0
2018-09-21 23:10,50.6304333333333,-96.9807733333333,5.6,9.3,241,994.96,9.4,52,12.97,0.0,1022.09,360.0
2018-09-21 23:20,50.6304383333333,-96.9807716666667,5.3,8.8,261,995.01,9.1,52,12.96,0.0,1022.15,360.0
2018-09-21 23:30,50.63044,-96.9807716666667,4.5,7.8,262,994.98,9.2,53,12.96,0.0,1022.11,360.0
2018-09-21 23:40,50.6304416666667,-96.9807716666667,4.9,7.4,246,995.07,9.0,53,12.95,0.0,1022.19,360.0
2018-09-21 23:50,50.6304416666667,-96.9807716666667,5.0,7.5,245,994.98,8.9,53,12.95,0.0,1022.10,360.0
